User: anonymous   Login
Location: Gwatt
(46.7204°N, 7.6223°E)
Time: 03:30:32
(UTC+00:00)
Language:

Cosmos 1975 - Orbit

View from above orbital plane
View from above orbital plane
View from above satellite
View from above satellite

Ground track
Ground track

The orbit data is extracted from the following two-line orbital elements,

1 19573U 88093A   20332.92170012 +.00000940 +00000-0 +64165-4 0  9994
2 19573 082.5208 205.8328 0013597 332.5965 027.4543 15.04986024728098
Epoch (UTC): 27 November 2020 22:07:14
Eccentricity: 0.0013597
inclination: 82.5208°
perigee height: 542 km
apogee height: 561 km
right ascension of ascending node: 205.8328°
argument of perigee: 332.5965°
revolutions per day: 15.04986024
mean anomaly at epoch: 27.4543°
orbit number at epoch: 72809

The dashed part of the orbit path shows where the satellite is in the earth's shadow,  

DLR